Ord, NE

12:35 PM CDT on April 26, 2018 (GMT -0500)
Sharp

Weather History for KODX - October, 2012

Change the Weather History Date:

Tuesday, October 16, 2012

  Actual Average Record
Temperature  
Mean Temperature 61 °F 50 °F  
Max Temperature 78 °F 63 °F 78 °F (1996)
Min Temperature 43 °F 36 °F 21 °F (2001)
Degree Days  
Heating Degree Days 4 16  
Month to date heating degree days 256 204  
Since 1 July heating degree days 398 341  
Cooling Degree Days 0 0  
Month to date cooling degree days 0 6  
Year to date cooling degree days 1220 844  
Growing Degree Days 12 (Base 50)    
Moisture  
Dew Point 39 °F    
Average Humidity 49    
Maximum Humidity 76    
Minimum Humidity 21    
Precipitation  
Precipitation 0.00 in 0.08 in 1.71 in (1980)
Month to date precipitation 0.01 1.10  
Year to date precipitation 11.06 22.45  
Sea Level Pressure  
Sea Level Pressure 29.54 in    
Wind  
Wind Speed 10 mph (West)    
Max Wind Speed 18 mph    
Max Gust Speed 24 mph    
Visibility 10 miles    
Events      
T = Trace of Precipitation, MM = Missing Value Source: NWS Daily Summary

Daily Weather History Graph

Daily Weather History Graph

Search for Another Location

Airport or City:

Astronomy

Oct. 16, 2012 Rise Set
Actual Time 7:49 AM CDT 6:52 PM CDT
Civil Twilight 7:21 AM CDT 7:20 PM CDT
Nautical Twilight 6:49 AM CDT 7:52 PM CDT
Astronomical Twilight 6:17 AM CDT 8:24 PM CDT
Moon 9:16 AM CDT (10/16) 7:36 PM CDT (10/16)
Length of Visible Light 11h 58m
Length of Day
11h 02m
New Moon, 2% of the Moon is Illuminated
Oct 16
New Moon
Oct 21
First Quarter
Oct 29
Full
Nov 6
Last Quarter
Nov 13
New

Hourly Weather History & Observations

Time (CDT) Temp. Windchill Dew Point Humidity Pressure Visibility Wind Dir Wind Speed Gust Speed Precip Events Conditions
12:53 AM 57.9 °F - 42.1 °F 56% 29.65 in 10.0 mi SSW 8.1 mph - N/A   Clear
1:53 AM 57.9 °F - 43.0 °F 58% 29.61 in 10.0 mi South 10.4 mph - N/A   Clear
2:53 AM 52.0 °F - 42.1 °F 69% 29.60 in 10.0 mi SSW 3.5 mph - N/A   Clear
3:53 AM 46.0 °F 43.9 °F 39.0 °F 76% 29.61 in 10.0 mi WNW 4.6 mph - N/A   Clear
4:53 AM 45.0 °F 42.6 °F 37.9 °F 76% 29.61 in 10.0 mi NW 4.6 mph - N/A   Clear
5:53 AM 53.1 °F - 34.0 °F 48% 29.62 in 10.0 mi NW 12.7 mph - N/A   Clear
6:53 AM 53.1 °F - 37.0 °F 55% 29.66 in 10.0 mi NW 10.4 mph - N/A   Clear
7:53 AM 52.0 °F - 37.9 °F 59% 29.68 in 10.0 mi NW 8.1 mph - N/A   Clear
8:53 AM 55.0 °F - 39.0 °F 55% 29.70 in 10.0 mi NNW 5.8 mph - N/A   Clear
9:53 AM 60.1 °F - 39.9 °F 47% 29.69 in 10.0 mi NW 11.5 mph - N/A   Clear
10:53 AM 64.9 °F - 43.0 °F 45% 29.67 in 10.0 mi NNW 15.0 mph 21.9 mph N/A   Clear
11:53 AM 69.1 °F - 43.0 °F 39% 29.63 in 10.0 mi NW 12.7 mph 20.7 mph N/A   Clear
12:53 PM 73.0 °F - 42.1 °F 33% 29.60 in 10.0 mi WNW 11.5 mph 16.1 mph N/A   Clear
1:53 PM 75.0 °F - 39.0 °F 27% 29.55 in 10.0 mi NW 9.2 mph - N/A   Clear
2:53 PM 77.0 °F - 37.9 °F 24% 29.51 in 10.0 mi Variable 6.9 mph - N/A   Clear
3:53 PM 77.0 °F - 36.0 °F 23% 29.48 in 10.0 mi West 11.5 mph 17.3 mph N/A   Clear
4:53 PM 78.1 °F - 35.1 °F 21% 29.45 in 10.0 mi Calm Calm - N/A   Clear
5:53 PM 73.9 °F - 35.1 °F 24% 29.43 in 10.0 mi SSW 9.2 mph - N/A   Clear
6:53 PM 66.9 °F - 35.1 °F 31% 29.42 in 10.0 mi South 6.9 mph - N/A   Clear
7:53 PM 69.1 °F - 36.0 °F 30% 29.40 in 10.0 mi South 9.2 mph - N/A   Scattered Clouds
8:53 PM 66.9 °F - 37.0 °F 33% 29.38 in 10.0 mi South 8.1 mph - N/A   Clear
9:53 PM 68.0 °F - 37.9 °F 33% 29.35 in 10.0 mi SSW 16.1 mph - N/A   Partly Cloudy
10:53 PM 66.9 °F - 39.0 °F 36% 29.35 in 10.0 mi SSW 13.8 mph - N/A   Mostly Cloudy
11:53 PM 66.9 °F - 39.0 °F 36% 29.34 in 10.0 mi SW 15.0 mph - N/A   Partly Cloudy